Waarnemingen

Advertentie
Mijn weer
Quimper, Frankrijk (7201): temperatuur & dauwpunt: 13.09.2019 06:00:00 - 19.09.2019 06:00:00 (CEST)Quimper, Frankrijk (7201): temperatuur 5cm: 13.09.2019 06:00:00 - 19.09.2019 06:00:00 (CEST)Quimper, Frankrijk (7201): temperatuur -20cm: 13.09.2019 06:00:00 - 19.09.2019 06:00:00 (CEST)Quimper, Frankrijk (7201): windsnelheid & windstoten: 13.09.2019 06:00:00 - 19.09.2019 06:00:00 (CEST)Quimper, Frankrijk (7201): windrichting: 13.09.2019 06:00:00 - 19.09.2019 06:00:00 (CEST)Quimper, Frankrijk (7201): luchtdruk: 13.09.2019 06:00:00 - 19.09.2019 06:00:00 (CEST)Quimper, Frankrijk (7201): zicht: 13.09.2019 06:00:00 - 19.09.2019 06:00:00 (CEST)Quimper, Frankrijk (7201): Zonneschijnduur: 13.09.2019 06:00:00 - 19.09.2019 06:00:00 (CEST)Quimper, Frankrijk (7201): neerslag: 13.09.2019 06:00:00 - 19.09.2019 06:00:00 (CEST)
Datum & Tijd tt [°C] td [°C] tt 5cm [°C] tt -20cm [°C] ff [km/u] ff [kn] fx [km/u] fx [kn] dd ppp [hPa] vv [km] sd [min] rr [mm]
19.09.2019 06:00:00 11,0 8,9 9,9 17,4 12 7 24 13 ONO 1026,6 46 0 0,0
19.09.2019 05:00:00 12,0 9,2 11,4 17,5 16 9 29 16 NO 1026,7 47 0 0,0
19.09.2019 04:00:00 12,3 9,7 11,6 17,5 18 10 26 14 NO 1027,0 45 0 0,0
19.09.2019 03:00:00 12,8 10,2 12,1 17,6 19 10 31 17 NO 1027,0 43 0 0,0
19.09.2019 02:00:00 13,0 10,2 12,3 17,6 16 9 30 16 ONO 1027,0 45 0 0,0
19.09.2019 01:00:00 13,4 10,2 12,7 17,7 19 11 34 18 O 1026,7 46 0 0,0
19.09.2019 00:00:00 13,7 10,1 13,2 17,7 21 11 38 20 ONO 1026,5 46 0 0,0
18.09.2019 23:00:00 14,1 9,9 13,5 17,7 19 10 39 21 ONO 1025,9 49 0 0,0
18.09.2019 22:00:00 14,5 9,1 13,8 17,7 22 12 39 21 ONO 1025,5 58 0 0,0
18.09.2019 21:00:00 15,3 8,3 14,5 17,7 20 11 36 20 NO 1025,0 60 0 0,0
18.09.2019 20:00:00 16,9 8,1 17,2 17,7 22 12 42 23 NO 1024,4 55 60 0,0
18.09.2019 19:00:00 18,8 6,9 20,6 17,5 23 13 47 25 NO 1024,0 54 60 0,0
18.09.2019 18:00:00 19,8 6,9 22,4 17,5 22 12 43 23 NO 1023,7 43 60 0,0
18.09.2019 17:00:00 20,5 5,3 23,0 17,4 27 14 42 23 ONO 1023,9 43 60 0,0
18.09.2019 16:00:00 20,3 5,5 23,5 17,4 26 14 48 26 NO 1024,2 18 60 0,0
18.09.2019 15:00:00 20,4 5,2 22,8 17,4 27 15 45 25 NO 1024,5 19 60 0,0
18.09.2019 14:00:00 19,7 5,3 21,5 17,4 27 15 45 24 ONO 1024,7 36 60 0,0
18.09.2019 13:00:00 18,5 7,0 19,8 17,4 26 14 45 24 ONO 1025,0 40 60 0,0
18.09.2019 12:00:00 17,0 7,3 18,3 17,5 27 15 46 25 ONO 1025,4 45 60 0,0
18.09.2019 11:00:00 15,4 9,3 16,2 17,6 21 11 37 20 ONO 1025,5 20 60 0,0
18.09.2019 10:00:00 13,7 9,1 13,8 17,7 23 12 36 19 ONO 1025,4 45 60 0,0
18.09.2019 09:00:00 12,6 9,8 11,5 17,8 19 11 32 17 ONO 1024,9 20 40 0,0
18.09.2019 08:00:00 11,9 9,5 11,0 17,8 18 10 29 16 ONO 1024,3 44 0 0,0
18.09.2019 07:00:00 11,9 9,6 11,3 17,9 17 9 29 16 NO 1023,7 42 0 0,0
18.09.2019 06:00:00 12,4 9,9 11,7 18,0 19 10 39 21 NO 1023,4 49 0 0,0
18.09.2019 05:00:00 12,7 10,1 11,3 18,1 22 12 36 19 NO 1023,5 49 0 0,0
18.09.2019 04:00:00 12,4 10,5 11,4 18,1 16 8 31 17 NO 1023,9 32 0 0,0
18.09.2019 03:00:00 12,6 11,0 11,9 18,2 20 11 32 17 NO 1023,7 20 0 0,0
18.09.2019 02:00:00 12,8 11,4 12,1 18,3 17 9 27 15 NO 1023,6 34 0 0,0
18.09.2019 01:00:00 13,3 11,4 12,5 18,3 19 11 33 18 NO 1023,7 45 0 0,0
18.09.2019 00:00:00 13,7 11,4 12,9 18,4 17 9 34 18 NO 1023,5 53 0 0,0
17.09.2019 23:00:00 14,5 11,3 13,9 18,4 22 12 34 19 NO 1023,4 56 0 0,0
17.09.2019 22:00:00 15,6 12,9 14,9 18,4 21 11 35 19 NO 1022,8 37 0 0,0
17.09.2019 21:00:00 16,6 13,1 15,7 18,3 16 8 30 16 NO 1022,4 49 2 0,0
17.09.2019 20:00:00 18,4 13,9 18,7 18,2 19 10 41 22 NO 1022,0 45 60 0,0
17.09.2019 19:00:00 20,0 13,9 20,5 18,2 20 11 38 21 ONO 1021,7 54 42 0,0
17.09.2019 18:00:00 21,5 15,6 22,2 18,1 19 11 32 17 ONO 1021,6 48 20 0,0
17.09.2019 17:00:00 22,4 15,5 22,4 18,1 19 10 30 16 ONO 1021,6 57 23 0,0
17.09.2019 16:00:00 22,6 15,9 22,3 18,0 16 9 28 15 ONO 1021,8 60 19 0,0
17.09.2019 15:00:00 20,7 15,7 21,6 18,0 17 9 31 17 ONO 1022,1 60 2 0,0
17.09.2019 14:00:00 20,3 15,5 20,8 17,9 16 9 27 15 NO 1022,5 60 2 0,0
17.09.2019 13:00:00 19,5 15,4 19,9 18,0 17 9 32 17 ONO 1022,8 60 0 0,0
17.09.2019 12:00:00 20,1 15,5 19,9 18,0 16 9 28 15 ONO 1022,9 60 17 0,0
17.09.2019 11:00:00 18,3 15,5 18,9 18,0 12 6 18 10 ONO 1023,1 60 4 0,0
17.09.2019 10:00:00 17,3 15,5 17,0 18,0 10 6 17 9 ONO 1023,0 54 0 0,0
17.09.2019 09:00:00 16,4 14,8 16,1 18,1 12 6 29 15 NO 1022,8 54 0 0,0
17.09.2019 08:00:00 16,3 14,7 16,0 18,1 13 7 29 16 NO 1022,5 60 0 0,0
17.09.2019 07:00:00 16,1 14,5 15,8 18,2 16 8 29 15 NO 1022,2 60 0 0,0
17.09.2019 06:00:00 15,9 14,4 15,4 18,2 18 10 29 16 NO 1022,0 60 0 0,0
17.09.2019 05:00:00 15,5 14,4 14,9 18,3 16 9 29 16 NO 1022,3 56 0 0,0
17.09.2019 04:00:00 15,1 13,8 14,3 18,3 15 8 26 14 NO 1022,5 59 0 0,0
17.09.2019 03:00:00 14,9 13,4 14,4 18,4 18 10 33 18 NO 1022,8 51 0 0,0
17.09.2019 02:00:00 14,5 13,2 13,9 18,4 16 9 32 18 NNO 1023,0 47 0 0,0
17.09.2019 01:00:00 14,4 13,4 14,3 18,4 13 7 35 19 NNO 1023,4 49 0 0,0
17.09.2019 00:00:00 14,6 13,6 14,5 18,5 17 9 31 17 NNO 1023,3 60 0 0,0
16.09.2019 23:00:00 14,8 13,8 14,5 18,4 19 10 32 18 NNO 1023,2 18 0 0,0
16.09.2019 22:00:00 14,9 13,8 14,4 18,4 17 9 35 19 NNO 1023,0 50 0 0,0
16.09.2019 21:00:00 15,5 14,0 14,7 18,3 15 8 28 15 NNO 1022,8 56 0 0,0
16.09.2019 20:00:00 17,6 14,5 17,3 18,2 16 8 27 15 NNO 1022,4 60 50 0,0
16.09.2019 19:00:00 20,0 15,2 22,6 18,1 15 8 27 15 N 1022,1 59 60 0,0
16.09.2019 18:00:00 22,8 16,6 25,8 18,0 17 9 26 14 N 1021,9 60 60 0,0
16.09.2019 17:00:00 23,2 17,0 24,1 17,9 14 7 25 13 N 1022,0 60 53 0,0
16.09.2019 16:00:00 21,9 16,4 23,1 17,8 17 9 24 13 NNW 1022,4 56 36 0,0
16.09.2019 15:00:00 23,2 15,0 27,2 17,7 9 5 21 12 N 1022,7 60 60 0,0
16.09.2019 14:00:00 21,6 15,4 25,4 17,7 15 8 26 14 NO 1023,1 52 60 0,0
16.09.2019 13:00:00 20,2 15,0 22,9 17,8 15 8 24 13 NNO 1023,6 20 60 0,0
16.09.2019 12:00:00 18,4 14,1 19,5 17,8 13 7 27 14 NNO 1023,9 34 60 0,0
16.09.2019 11:00:00 15,9 12,5 18,5 17,9 11 6 22 12 NNO 1024,1 15 60 0,0
16.09.2019 10:00:00 13,7 12,1 13,1 18,1 13 7 22 12 NO 1024,0 11 60 0,0
16.09.2019 09:00:00 11,3 10,8 8,7 18,1 16 9 24 13 NNO 1023,9 9 43 0,0
16.09.2019 08:00:00 10,0 9,7 8,5 18,3 9 5 19 10 NO 1023,7 8 0 0,2
16.09.2019 07:00:00 10,6 10,3 9,0 18,3 13 7 32 17 NO 1023,5 9 0 0,0
16.09.2019 06:00:00 10,0 9,7 9,0 18,5 9 5 22 12 NNO 1023,2 9 0 0,0
16.09.2019 05:00:00 10,3 10,0 9,2 18,6 12 6 19 11 NO 1023,5 6 0 0,0
16.09.2019 04:00:00 10,9 10,4 10,1 18,7 11 6 20 11 NO 1023,6 8 0 0,2
16.09.2019 03:00:00 12,0 11,2 11,0 18,7 9 5 23 12 NO 1024,0 15 0 0,0
16.09.2019 02:00:00 12,6 11,3 11,6 18,8 11 6 19 10 NO 1024,0 19 0 0,0
16.09.2019 01:00:00 13,7 12,1 12,8 18,8 14 7 26 14 NO 1024,2 28 0 0,0
16.09.2019 00:00:00 14,6 13,3 13,9 18,8 15 8 22 12 NNO 1024,5 19 0 0,0
15.09.2019 23:00:00 15,5 13,9 14,7 18,8 15 8 22 12 NNO 1024,3 33 0 0,0
15.09.2019 22:00:00 16,6 14,8 15,6 18,7 12 6 24 13 NO 1023,9 35 0 0,0
15.09.2019 21:00:00 18,3 15,4 17,4 18,6 14 8 21 12 NNO 1023,8 46 6 0,0
15.09.2019 20:00:00 20,8 16,2 21,8 18,5 14 7 26 14 N 1023,4 53 60 0,0
15.09.2019 19:00:00 24,9 16,3 28,6 18,3 10 5 16 8 N 1022,8 53 60 0,0
15.09.2019 18:00:00 25,7 16,8 30,1 18,2 8 4 16 8 N 1022,8 56 60 0,0
15.09.2019 17:00:00 25,6 16,7 29,7 18,0 8 4 19 10 ONO 1023,3 40 60 0,0
15.09.2019 16:00:00 25,4 16,8 29,4 17,9 11 6 20 11 NNO 1023,7 20 60 0,0
15.09.2019 15:00:00 24,7 17,2 27,6 17,8 11 6 22 12 NO 1024,5 20 60 0,0
15.09.2019 14:00:00 23,5 16,8 26,7 17,8 13 7 22 12 NNO 1025,2 59 60 0,0
15.09.2019 13:00:00 22,1 16,4 26,0 17,8 13 7 25 13 NO 1025,5 20 60 0,0
15.09.2019 12:00:00 21,0 16,2 22,8 17,9 15 8 21 12 NNO 1025,7 20 60 0,0
15.09.2019 11:00:00 19,2 15,1 20,0 18,0 13 7 24 13 ONO 1025,6 60 60 0,0
15.09.2019 10:00:00 16,8 14,4 17,0 18,0 13 7 26 14 NO 1025,9 28 60 0,0
15.09.2019 09:00:00 14,5 13,5 13,5 18,1 17 9 27 14 NNO 1026,0 17 44 0,0
15.09.2019 08:00:00 13,7 12,9 13,2 18,2 15 8 22 12 NNO 1025,6 16 0 0,0
15.09.2019 07:00:00 13,9 13,3 13,1 18,2 11 6 20 11 NNO 1025,3 14 0 0,0
15.09.2019 06:00:00 14,2 13,6 13,3 18,3 12 7 19 10 NNO 1025,5 13 0 0,0
15.09.2019 05:00:00 14,5 13,9 13,7 18,4 12 7 21 12 NNO 1026,1 12 0 0,0
15.09.2019 04:00:00 14,8 14,0 14,0 18,4 12 6 18 10 NNO 1026,0 15 0 0,0
15.09.2019 03:00:00 15,1 14,0 14,3 18,5 11 6 20 11 NNO 1026,3 16 0 0,0
15.09.2019 02:00:00 15,5 14,0 14,6 18,6 14 7 21 11 NNO 1026,5 19 0 0,0
15.09.2019 01:00:00 16,0 14,4 15,2 18,6 14 7 19 11 NNO 1027,0 18 0 0,0
15.09.2019 00:00:00 16,4 14,4 15,3 18,5 10 6 17 9 NNO 1027,3 23 0 0,0
14.09.2019 23:00:00 17,4 15,0 16,3 18,5 11 6 21 11 NNO 1027,3 30 0 0,0
14.09.2019 22:00:00 18,9 15,6 17,9 18,4 14 7 22 12 NO 1027,2 47 0 0,0
14.09.2019 21:00:00 20,0 17,0 18,4 18,3 8 4 12 7 N 1027,2 48 9 0,0
14.09.2019 20:00:00 22,8 16,3 24,8 18,2 5 3 15 8 NNO 1026,5 60 60 0,0
14.09.2019 19:00:00 24,5 16,2 28,2 18,0 10 5 22 12 NNO 1026,4 52 60 0,0
14.09.2019 18:00:00 25,2 16,3 29,8 17,8 10 5 19 10 NNO 1026,7 47 60 0,0
14.09.2019 17:00:00 25,4 16,3 29,0 17,7 12 7 20 11 NO 1026,9 60 60 0,0
14.09.2019 16:00:00 24,9 16,6 28,4 17,5 9 5 21 11 NO 1027,5 48 60 0,0
14.09.2019 15:00:00 24,9 16,3 27,0 17,5 8 4 23 13 ONO 1028,1 56 60 0,2
14.09.2019 14:00:00 23,9 16,7 26,7 17,4 11 6 26 14 NO 1028,5 60 60 0,0
14.09.2019 13:00:00 23,0 16,5 24,2 17,4 15 8 26 14 NO 1029,2 60 60 0,0
14.09.2019 12:00:00 21,9 16,2 23,4 17,4 13 7 23 12 OZO 1029,6 18 60 0,0
14.09.2019 11:00:00 20,3 16,7 20,9 17,4 14 7 20 11 ONO 1030,1 20 60 0,0
14.09.2019 10:00:00 18,1 15,9 18,6 17,5 12 7 21 11 ONO 1030,0 17 60 0,0
14.09.2019 09:00:00 16,4 15,3 14,5 17,6 9 5 18 10 NO 1030,4 11 46 0,0
14.09.2019 08:00:00 15,1 14,5 14,2 17,6 13 7 22 12 NO 1030,2 9 0 0,0
14.09.2019 07:00:00 15,0 14,4 14,1 17,7 13 7 19 10 NO 1030,2 13 0 0,0
14.09.2019 06:00:00 15,2 14,2 14,4 17,7 12 6 19 10 NO 1030,2 31 0 0,0
14.09.2019 05:00:00 15,3 14,5 14,3 17,8 11 6 19 10 NO 1030,2 35 0 0,0
14.09.2019 04:00:00 15,5 14,7 14,7 17,8 13 7 22 12 NO 1030,5 34 0 0,0
14.09.2019 03:00:00 15,9 14,9 14,6 17,9 13 7 22 12 NO 1030,7 40 0 0,0
14.09.2019 02:00:00 15,4 14,6 14,6 17,9 13 7 21 12 NO 1031,3 34 0 0,0
14.09.2019 01:00:00 15,5 14,4 14,5 17,9 10 6 20 11 NO 1031,8 60 0 0,0
14.09.2019 00:00:00 15,9 14,3 14,9 17,9 11 6 29 15 NNO 1032,1 60 0 0,0
13.09.2019 23:00:00 17,4 14,7 15,8 17,9 19 10 31 17 ONO 1032,5 60 0 0,0
13.09.2019 22:00:00 17,4 14,7 16,6 17,9 11 6 25 13 ONO 1032,2 60 0 0,0
13.09.2019 21:00:00 17,7 14,8 16,6 17,8 16 8 26 14 NO 1031,6 60 9 0,0
13.09.2019 20:00:00 18,7 15,0 18,9 17,8 13 7 28 15 NO 1031,4 58 37 0,0
13.09.2019 19:00:00 20,2 15,6 21,6 17,7 18 10 31 17 NO 1031,3 52 52 0,0
13.09.2019 18:00:00 20,8 16,0 22,0 17,5 17 9 26 14 NO 1031,6 60 33 0,0
13.09.2019 17:00:00 20,7 15,7 22,7 17,4 13 7 25 13 NO 1031,9 55 8 0,0
13.09.2019 16:00:00 20,9 15,9 23,5 17,3 8 4 24 13 NNO 1032,8 58 30 0,0
13.09.2019 15:00:00 20,3 15,5 22,6 17,3 11 6 20 11 NO 1033,0 59 6 0,0
13.09.2019 14:00:00 20,1 15,3 21,4 17,2 11 6 23 12 NNO 1033,2 18 12 0,0
13.09.2019 13:00:00 18,6 14,5 20,1 17,2 8 4 16 8 NNO 1033,7 58 0 0,0
13.09.2019 12:00:00 18,5 14,8 20,1 17,2 10 5 19 10 NNO 1033,9 60 15 0,0
13.09.2019 11:00:00 18,0 14,1 19,2 17,2 9 5 15 8 NO 1034,1 54 22 0,0
13.09.2019 10:00:00 17,2 14,5 17,0 17,2 4 2 8 4 NNO 1034,0 39 17 0,0
13.09.2019 09:00:00 16,1 14,8 15,7 17,2 3 2 6 4 ZO 1033,6 20 0 0,0
13.09.2019 08:00:00 15,9 14,3 15,6 17,3 4 2 9 5 NNO 1033,0 31 0 0,0
13.09.2019 07:00:00 16,1 14,1 15,5 17,3 5 3 9 5 NNW 1033,1 55 0 0,0
13.09.2019 06:00:00 16,0 14,5 15,7 17,3 4 2 15 8 NW 1033,2 60 0 0,0

tt = temperatuur
td = dauwpunt
tt 5cm = temperatuur 5cm
tt -20cm = temperatuur -20cm
ff = windsnelheid
fx = windstoten
dd = windrichting
ppp = luchtdruk
vv = zicht
sd = Zonneschijnduur
rr = neerslag

Weerstations in de omgeving